Location: Moscow
(55.7500°N, 37.5830°E)
Time: 21:32:07
(UTC+03:00)

A-11 Canister half - Pass Details

Date: 09 December 2021
Orbit: 1516 x 1684 km, 47.2° (Epoch: 16 January)

Event Time Altitude Azimuth Distance (km) Brightness Sun altitude
Rises 04:22:49 0° 179° (S) 4,717 11.5 -35.3°
Reaches altitude 10° 04:27:39 10° 158° (SSE) 3,770 11.1 -34.7°
Maximum altitude 04:32:24 15° 128° (SE) 3,421 11.2 -34.0°
Drops below altitude 10° 04:37:13 10° 97° (E) 3,847 11.9 -33.3°
Sets 04:42:12 0° 77° (ENE) 4,871 12.7 -32.6°
